This is the latest recevied weather packets stored in our database for station/object DG9BJA-13. If no packets are shown the sender has not sent any weather packets the latest 10 day(s).
| Time | Temp. | Humidity | Pressure | Rain* | Wind** | Luminosity | Snow |
|---|---|---|---|---|---|---|---|
| 1776968776 | 11.11° C | 71% | 1025.4 hPa | 0 mm | - | 16 W/m² | - |
| 1776968176 | 11.67° C | 70% | 1025.4 hPa | 0 mm | - | 23 W/m² | - |
| 1776967576 | 12.22° C | 69% | 1025.4 hPa | 0 mm | - | 51 W/m² | - |
| 1776966976 | 12.22° C | 68% | 1025.4 hPa | 0 mm | - | 40 W/m² | - |
| 1776966376 | 12.78° C | 67% | 1025.4 hPa | 0 mm | - | 95 W/m² | - |
| 1776965776 | 13.33° C | 65% | 1025.3 hPa | 0 mm | - | 111 W/m² | - |
| 1776965176 | 13.89° C | 64% | 1025.2 hPa | 0 mm | - | 132 W/m² | - |
| 1776964576 | 13.89° C | 63% | 1025.2 hPa | 0 mm | - | 156 W/m² | - |
| 1776963976 | 14.44° C | 62% | 1025.2 hPa | 0 mm | - | 179 W/m² | - |
| 1776963376 | 14.44° C | 60% | 1025.4 hPa | 0 mm | - | 199 W/m² | - |
| 1776962776 | 15° C | 59% | 1025.4 hPa | 0 mm | - | 229 W/m² | - |
| 1776962176 | 15° C | 60% | 1025.3 hPa | 0 mm | - | 244 W/m² | - |
| 1776961576 | 15° C | 58% | 1025.4 hPa | 0 mm | - | 287 W/m² | - |
| 1776960976 | 15.56° C | 56% | 1025.4 hPa | 0 mm | - | 311 W/m² | - |
| 1776960376 | 15.56° C | 54% | 1025.4 hPa | 0 mm | - | 339 W/m² | - |
| 1776959776 | 16.11° C | 54% | 1025.4 hPa | 0 mm | - | 364 W/m² | - |
| 1776959175 | 16.11° C | 51% | 1025.4 hPa | 0 mm | - | 391 W/m² | - |
| 1776958576 | 16.11° C | 51% | 1025.4 hPa | 0 mm | - | 418 W/m² | - |
| 1776957975 | 16.67° C | 50% | 1025.5 hPa | 0 mm | - | 446 W/m² | - |
| 1776957376 | 16.67° C | 47% | 1025.5 hPa | 0 mm | - | 466 W/m² | - |
| 1776956777 | 17.22° C | 47% | 1025.6 hPa | 0 mm | - | 494 W/m² | - |
| 1776956178 | 17.78° C | 46% | 1025.6 hPa | 0 mm | - | 517 W/m² | - |
| 1776955577 | 17.78° C | 46% | 1025.6 hPa | 0 mm | - | 531 W/m² | - |
| 1776954977 | 17.22° C | 47% | 1025.7 hPa | 0 mm | - | 543 W/m² | - |
| 1776954377 | 17.78° C | 43% | 1025.7 hPa | 0 mm | - | 563 W/m² | - |
* Rain latest hour (hover to see other rain measurements)
** Current wind speed in m/s (hover to see current wind gust speed)